Location: Sternwarte Stuttgart
(48.7670°N, 9.1830°E)
Time: 23:07:32
(UTC+01:00)

Cosmos 1408 Rocket - Pass Details

Date: 24 January 2019
Orbit: 601 x 631 km, 82.6° (Epoch: 14 February)

Event Time Altitude Azimuth Distance (km) Brightness Sun altitude
Rises 06:44:58 0° 349° (N) 2,934 6.8 -12.8°
Reaches altitude 10° 06:47:13 10° 349° (N) 2,019 5.9 -12.5°
Maximum altitude 06:51:42 84° 264° (W) 637 3.5 -11.7°
Drops below altitude 10° 06:56:07 10° 175° (S) 1,989 6.5 -11.0°
Sets 06:58:19 0° 174° (S) 2,886 7.3 -10.7°
